Regional Weather Roundup
Issued by NWS

Home | Current Version | Previous Version | Text Only | Print | Product List | Glossary On
Versions: 1 2 3 4 5 6 7 8 9 10 11 12 13 14 15 16 17 18 19 20 21 22 23 24 25 26 27 28 29 30 31 32 33 34 35 36 37 38 39 40 41 42 43 44 45 46 47 48 49 50
701
ASUS44 KJAN 281610
RWRMS

MISSISSIPPI HOURLY WEATHER ROUNDUP
NATIONAL WEATHER SERVICE JACKSON MS
1100 AM CDT WED JUN 28 2017

NOTE: "FAIR: INDICATES FEW OR NO CLOUDS BELOW 12,000 FEET WITH NO
SIGNIFICANT WEATHER AND/OR OBSTRUCTIONS TO VISIBILITY.

MSZ001>002-007>008-010>013-018>021-025>028-034>036-281700-
NORTHWEST MISSISSIPPI

CITY           SKY/WX    TMP DP  RH WIND       PRES   REMARKS
BATESVILLE     FAIR      83  65  55 SE7       30.07F
CLARKSDALE       N/A     84  72  65 S5G12     30.06S
CLEVELAND      FAIR      83  70  63 S9        30.05S
GREENWOOD      SUNNY     85  68  56 SE7       30.05F
GREENVILLE     SUNNY     83  66  56 SE8       30.04S
OLIVE BRANCH   MOSUNNY  N/A N/A N/A S5        30.07F
OXFORD         FAIR      81  64  57 S8        30.09F
TUNICA           N/A     81  66  61 S9        30.07S
WINONA         FAIR      81  68  65 SE7       30.07F
$$

MSZ003>006-009-014>017-022>024-029>033-037>039-281700-
NORTHEAST MISSISSIPPI

CITY           SKY/WX    TMP DP  RH WIND       PRES   REMARKS
COLUMBUS AFB   SUNNY     84  72  65 SE5       30.07F
CORINTH        FAIR      82  61  47 VRB7      30.11S
STARKVILLE     FAIR      82  68  61 S6        30.09F
TUPELO         SUNNY     83  63  50 SE7       30.09F
$$

MSZ040-058-281700-
CENTRAL MISSISSIPPI

CITY           SKY/WX    TMP DP  RH WIND       PRES   REMARKS
JACKSON INTL   MOSUNNY   84  67  56 SE13      30.05F
JACKSON HAWKNS SUNNY     83  65  54 SE8G20    30.05F
MADISON        FAIR      81  68  65 SE3       30.05S
MERIDIAN KEY   MOSUNNY   85  69  58 E9        30.07F
MERIDIAN NAS   MOSUNNY   84  64  50 E9        30.08F
RAYMOND        FAIR      84  68  58 MISG      30.04S
VICKSBURG VKS  SUNNY     84  68  58 SE6       30.00F
$$

MSZ059>079-281700-
SOUTH MISSISSIPPI

CITY           SKY/WX    TMP DP  RH WIND       PRES   REMARKS
COLUMBIA       PTSUNNY   84  70  61 VRB3      30.07S
HATTIESBURG    CLOUDY    84  68  58 VRB5      30.05S
LAUREL         CLOUDY    83  70  65 E6        30.06S
MCCOMB         MOSUNNY   82  69  64 S13       30.03F
NATCHEZ        MOSUNNY   84  72  67 SE7       30.03F
PINE BELT      SUNNY     82  70  65 SE5       30.08S
$$

MSZ080>082-281700-
COASTAL MISSISSIPPI

CITY           SKY/WX    TMP DP  RH WIND       PRES   REMARKS
BAY ST LOUIS   PTSUNNY   81  73  78 SE6       30.03S
BILOXI         CLOUDY    83  76  78 SE9       30.03R HX  91
PASCAGOULA     CLOUDY    84  73  69 SE8       30.04R HX  90
GULFPORT       CLOUDY    84  76  76 SE10      30.02S HX  93
$$

LAZ007>009-015>016-023>026-281700-
NORTHEAST LOUISIANA

CITY           SKY/WX    TMP DP  RH WIND       PRES   REMARKS
BASTROP        FAIR      83  69  62 S6        30.03S
TALLULAH/VBURG SUNNY     84  69  60 SE8       30.03F
VIDALIA        FAIR      83  73  72 SE8       30.01S
$$




USA.gov is the U.S. government's official web portal to all federal, state and local government web resources and services.